Location: Bernadets
(43.3537°N, 0.3167°E)
Time: 08:19:33
(UTC+00:00)

NOSS 3-1 (C) - Pass Details

Date: 24 October 2021
Orbit: 717 x 1491 km, 63.4° (Epoch: 25 November)

Event Time Altitude Azimuth Distance (km) Brightness Sun altitude
Rises 18:10:18 0° 219° (SW) 3,162 6.9 -13.2°
Reaches altitude 10° 18:12:32 10° 221° (SW) 2,288 6.1 -13.6°
Maximum altitude 18:17:44 78° 308° (NW) 857 3.3 -14.5°
Drops below altitude 10° 18:23:52 10° 35° (NE) 2,688 5.5 -15.6°
Enters shadow 18:25:06 - 36° (NE) 3,156 5.8 -15.9°
